Regional Weather Roundup
Issued by NWS

Home | Current Version | Previous Version | Text Only | Print | Product List | Glossary On
Versions: 1 2 3 4 5 6 7 8 9 10 11 12 13 14 15 16 17 18 19 20 21 22 23 24 25 26 27 28 29 30 31 32 33 34 35 36 37 38 39 40 41 42 43 44 45 46 47 48 49 50
000
ASUS43 KTOP 270159
RWRKS

WEATHER ROUNDUP FOR KANSAS
NATIONAL WEATHER SERVICE GOODLAND KS
800 PM CST THU FEB 26 2015

NOTE:  "FAIR" INDICATES FEW OR NO CLOUDS BELOW 12,000 FEET WITH NO
SIGNIFICANT WEATHER AND/OR OBSTRUCTIONS TO VISIBILITY.

KSZ001>006-013>018-027>032-041>047-270300-
NORTHWEST KANSAS

CITY           SKY/WX    TMP DP  RH WIND       PRES   REMARKS
GOODLAND       CLOUDY    17   5  59 E5        30.32R
HAYS           CLEAR     12  -8  40 NE6       30.45R
HILL CITY      CLEAR     11  -6  46 NE6       30.44R
RUSSELL        CLEAR     11  -6  46 NE6       30.45R
$$

KSZ061>065-074>080-084>089-270300-
SOUTHWEST KANSAS

CITY           SKY/WX    TMP DP  RH WIND       PRES   REMARKS
DODGE CITY     CLOUDY    19  -2  39 NE13      30.38S WCI   6
ELKHART          N/A     17  10  74 NE7         N/A
GARDEN CITY    CLOUDY    19   4  51 E13       30.36R WCI   6
GREAT BEND     MOCLDY    16  -4  41 NE7       30.47R
LIBERAL        CLOUDY    21   3  45 NE9       30.37R
$$

KSZ066>073-081>083-090>101-270300-
SOUTHEAST KANSAS

CITY           SKY/WX    TMP DP  RH WIND       PRES   REMARKS
CHANUTE        CLEAR     18   3  52 N8        30.49R
COFFEYVILLE    CLEAR     20   2  45 N9        30.49R
HUTCHINSON     PTCLDY    18  -3  39 N7        30.48R
MEDICINE LODGE   N/A     21  -3  35 NE12      30.46R WCI   9
NEWTON         MOCLDY    16  -2  45 N8        30.48R
PARSONS        CLEAR     19   3  49 N7        30.49R
WICHITA INTL   PTCLDY    20  -3  36 NE15      30.47R WCI   6
WICHITA JABRA  PTCLDY    17   0  47 N8        30.47R
WINFIELD       PTCLDY    19   0  43 N10       30.49R WCI   7
$$

KSZ007>012-019>026-033>040-048>060-102>105-270300-
NORTHEAST KANSAS

CITY           SKY/WX    TMP DP  RH WIND       PRES   REMARKS
CONCORDIA      CLEAR     11   0  61 NE7       30.51R
EMPORIA        CLEAR     14   1  56 N12       30.49R WCI   0
LAWRENCE       CLEAR     12  -2  53 N9        30.55R
MANHATTAN      CLEAR     14   2  58 NE9       30.54R
OLATHE IND     CLEAR     12   0  58 N15       30.52R WCI  -4
OLATHE EXE     CLEAR     14   0  53 N14       30.50R WCI  -1
SALINA         CLEAR     17  -3  41 NE12      30.52R WCI   4
TOPEKA BILLARD CLEAR     13   0  56 N9        30.56R
TOPEKA FORBES  CLEAR     14  -1  51 N12       30.52R WCI   0
$$



USA.gov is the U.S. government's official web portal to all federal, state and local government web resources and services.